Погода в Елабуге

Поиск расширенной информации на нашем сайте:

Полезная информация:

Новости сайта



02.01.2020
Опубликован Долгосрочный прогноз погоды по городам России и ближнего зарубежья на январь 2020 года.
Карты: Прогноз на январь и февраль 2020 года, Сравнение прогнозируемой аномалии приземной температуры воздуха на январь 2020 года по разным моделям.




Погода в Елабуге - сегодня

Время (UTC), дата Ветер
(°,м/с) 
Видим.   Явления Облачность Т
(°С)
Тd
(°С)
f(%) Тe
(°С)
Pmin
(гПа)
dP
(гПа)
Po
(мм)
O2
(г/м3)
Тmin Tmax R s Состояние
почвы
15 24.02.21 320 (СЗ) 10 км    ясно 
-21.4 -28.4 53 -26  1032.2  0.4  765  336    -17.1       
18 24.02.21 320 (СЗ) 10 км    ясно 
-21.9 -28.1 57 -25  1033.1  0.9  765  337           
21 24.02.21 230 (ЮЗ) 10 км    ясно 
-24.3 -29.1 64 -25  1033  -0.3  765  340           
00 25.02.21 310 (СЗ) 10 км    ясно 
-25.9 -29.8 70 -26  1032.8  -0.3  765  342           
03 25.02.21 тихо ()   10 км    ясно 
-29.1 -33.2 68 -29  1032.6  -0.3  765  347  -29.1      46  равномерный
сухой снег
100% 
06 25.02.21 140 (ЮВ) 10 км    3/0 верхняя 
[Ci fib]
-25.1 -29.6 66 -26  1031.5  -0.9  764  341  -29.5         
09 25.02.21 170 (Ю) 10 км    8/0 верхняя 
[Cs]
-20.5 -26.9 57 -23  1029.4  -1.8  763  334           
12 25.02.21 160 (Ю) 10 км    9/0 верхняя 
[Cs]
-18 -25.5 52 -22  1027  -2.3  761  330           
15 25.02.21 140 (ЮВ) 10 км  слаб. снег  10/0 средняя 
[As op]
-17.9 -23.7 60 -20  1024.8  -2.2  759  329    -17.4  0.0     
18 25.02.21 130 (ЮВ) 10 км  слаб. снег  10/0 средняя 
[As op]
-18.5 -22.9 68 -21  1023  -1.7  758  329           
21 25.02.21 130 (ЮВ) 10 км  {снег}  3/0 верхняя 
[Ci fib]
-20.3 -24.4 70 -23  1022.2  -0.8  757  331           
00 26.02.21 тихо ()   10 км    ясно 
-21.9 -25.6 72 -22  1021.5  -0.8  757  333           
03 26.02.21 130 (ЮВ) 10 км    3/0 верхняя 
[Ci fib]
-22.8 -26.6 71 -23  1021.1  -0.5  756  334  -22.9    0.4  46  равномерный
сухой снег
100% 
06 26.02.21 130 (ЮВ) 10 км    ясно 
-19.9 -25 64 -24  1020.6  -0.3  756  330  -22.9         
09 26.02.21 140 (ЮВ) 10 км    4/0 верхняя 
[Ci fib]
-16.8 -23.6 56 -22  1020  -0.4  756  326           
12 26.02.21 120 (ЮВ) 10 км    ясно 
-15.1 -22 56 -19  1018.4  -1.5  755  324           
15 26.02.21 130 (ЮВ) 10 км    4/0 средняя 
[Ac As]
-16.5 -22 62 -21  1015.9  -2.5  753  324    -15       
18 26.02.21 130 (ЮВ) 10 км    4/0 средняя 
[Ac As]
-17.7 -22.7 65 -22  1012.5  -3.4  750  325           
21 26.02.21 130 (ЮВ) 10 км  слаб. снег  10/0 средняя 
[As op]
-17.1 -20.9 72 -22  1008.3  -4.1  747  323           
00 27.02.21 110 (В) 3{11}  4000 м  снег  10/0 средняя 
[As trans]
-16.2 -19.6 75 -20  1004.4  -3.8  744  320           
03 27.02.21 120 (ЮВ) 2000 м  снег  10/0 средняя 
[As op]
-14.8 -17.9 77 -18  1001.2  -3.1  742  318  -17.9    51  равномерный
сухой снег
100% 
06 27.02.21 110 (В) 4000 м  слаб. снег  10/0 средняя 
[As op]
-13.1 -16.5 76 -17  1000.1  -0.9  741  315           
09 27.02.21 100 (В) 4000 м  слаб. снег  10/0 средняя 
[As op]
-11.8 -15.4 75 -15  999.8  -0.3  741  313           
12 27.02.21 050 (СВ) 4000 м  слаб. снег  10/0 средняя 
[As op]
-11.1 -14.7 75 -13  1000.4  0.6  742  313           
15 27.02.21 050 (СВ) 4000 м  слаб. снег  10/0 средняя 
[As op]
-11.2 -14.7 75 -14  1001.3  742  313    -10.8     
Время (UTC), дата Ветер
(°,м/с) 
Видим.   Явления Облачность Т
(°С)
Тd
(°С)
f(%) Тe
(°С)
Pmin
(гПа)
dP
(гПа)
Po
(мм)
O2
(г/м3)
Тmin Tmax R s Состояние
почвы

Для получения пояснительной информации подведите курсор к названию столбца.

ПОГОДА в Елабуге - архив

Всё, что Вы хотите узнать о погоде в Елабуге - удобно и подробно!

Выберите нужную дату (начиная с 1 января 2019* года) и нажмите кнопку "Найти".
Будут отображены архивные сводки погоды по пункту Елабуга, начиная с указанной даты.


Отображать данные в формате CSV (для использования в таблицах Excel)


Внимание! Наш архив погоды предназначен исключительно для личного некоммерческого использования в познавательных целях. Если Вам необходимы официальные справки о состоянии погоды (для производственных, юридических, коммерческих и т.п. целей), обращайтесь в органы Росгидромета.

*Примечание: данная дата относится к архиву по метеостанциям СССР (Россия, СНГ, Балтия).
Архив по метеостанциям Зарубежной Европы и Азии (кроме Китая) хранится 10 дней, по другим регионам земного шара (Китай, Африка, Америка, Австралия, Океания) - 1 день.

Елабуга - район местоположения метеостанции


Название, широта, долгота, высота метеостанции:
Елабуга 55.7°ш. 52.1°д. 90 м над ур. моря [Российская Федерация]

Дополнительная информация

В oтличие oт бoльшинства пoгoдных сайтoв мы публикуем пoдрoбную метеoинфoрмацию в детальнoм прoфессиoнальнoм фoрмате.

Характеристики температуры и влажнoсти вoздуха измеряются на высoте 2 м в тени вдали oт зданий и деревьев.
Скoрoсть ветра измеряется на высoте 10 м (на урoвне рoста челoвека скoрoсть ветра ниже в 1.5-2 раза). Если метеoстанция нахoдится в гoрoде или в лесу, тo скoрoсть ветра занижена на 2-4 м/с пo сравнению с oткрытым местoм. Скoрoсть ветра над акватoриями крупных рек и oзёр, а также на вершинах хoлмoв на 2-5 м/с выше, чем в oбычных услoвиях.
Атмoсфернoе давление в разных тoчках местнoсти мoжет значительнo oтличаться oт давления на метеoстанции, в зависимoсти oт услoвий рельефа (при пoдъёме на 10 м давление пoнижается примернo на 1 мм рт.ст.).